François Lagadeuc

François Lagadeuc

Statistiques 2026

  • Courses courues : 319
  • Nb de victoires : 46
  • Nb de places : 87
  • Écart gagnant : 13
  • Réussite à la gagne : 14%
  • Réussite à la place : 27%
Musique : 5m 4a 0m 0a 0a Da Da Da 5a 2a 3a 2a 8a 1a 8a 1a 5m Da
DateRangCatégorieAlloc.Dist.HippodromeChevalRed. KmSpé.
17/10/22 6 Trot 57 000€ 2 900m Enghien Soisy Fille Vauloger 1'16"0 Monté lire

Longtemps en queue de peloton, a conclu convenablement.

17/10/22 4 Trot 39 000€ 2 875m Enghien Soisy Jazzy Cut 1'16"9 Attelé
16/10/22 3 Trot 19 000€ 2 725m Graignes Ibrahic 1'15"8 Attelé
16/10/22 3 Trot 25 000€ 2 700m Graignes Domingo Aldo 1'14"9 Monté
16/10/22 4 Trot 20 000€ 2 725m Graignes Hulina d'Argouges 1'16"0 Attelé
16/10/22 D Trot 20 000€ 2 725m Graignes Heros de Choisel Attelé
16/10/22 6 Trot 37 000€ 2 725m Graignes Fashion Touch 1'15"2 Attelé
16/10/22 3 Trot 25 000€ 2 725m Graignes Franklin Face 1'15"4 Attelé
15/10/22 D Trot 24 000€ 2 725m Cabourg Hibiscus de Maisy Attelé
15/10/22 6 Trot 24 000€ 2 725m Cabourg Heala Carisaie 1'14"0 Attelé
15/10/22 1 Trot 24 000€ 2 050m Cabourg Ivanovitch Est La 1'12"9 Attelé
15/10/22 8 Trot 36 000€ 2 750m Cabourg Follow Me Flash 1'13"9 Attelé
15/10/22 3 Trot 24 000€ 2 050m Cabourg Igorine 1'12"3 Attelé
14/10/22 1 Trot 90 000€ 2 850m Vincennes Fantaisie 1'11"9 Monté lire

Principale animatrice, a su se montrer la plus forte pour finir.

14/10/22 2 Trot 100 000€ 2 100m Vincennes Hohneck 1'10"8 Attelé lire

Venu en tête en plaine, n'a pu s'opposer au lauréat aux abords du poteau.

14/10/22 4 Trot 65 000€ 2 875m Vincennes Douglas du Pont 1'13"9 Attelé
10/10/22 6 Trot 44 000€ 2 150m Enghien Soisy Jain Mab 1'14"1 Attelé
10/10/22 2 Trot 39 000€ 2 150m Enghien Soisy Indigo Pierji 1'12"8 Attelé lire

Est venu prendre la tête au début du dernier tour, s'inclinant dans les cent derniers mètres.

10/10/22 4 Trot 36 000€ 2 150m Enghien Soisy Krak du Rieu 1'16"5 Attelé
10/10/22 5 Trot 57 000€ 2 900m Enghien Soisy Elan du Mouchel 1'13"3 Attelé lire

Après avoir attendu en retrait, a comblé du terrain tout au long de la phase finale.

09/10/22 D Trot 15 000€ 2 625m Cherbourg Iolas Attelé
09/10/22 4 Trot 15 000€ 2 625m Cherbourg Imagine Maisons 1'15"9 Attelé
09/10/22 8 Trot 13 000€ 2 625m Cherbourg John Angot 1'18"6 Attelé
09/10/22 0 Trot 10 000€ 2 625m Cherbourg Fidelo Beji Attelé
09/10/22 7 Trot 10 000€ 2 650m Cherbourg Just Imagine 1'17"8 Attelé
09/10/22 4 Trot 10 000€ 2 625m Cherbourg Kavale du Choquel 1'20"0 Attelé
08/10/22 D Trot 20 000€ 2 850m Laval Jaguar Maya Attelé
08/10/22 9 Trot 20 000€ 2 850m Laval I Am de la Cour 1'17"4 Monté
08/10/22 1 Trot 20 000€ 2 850m Laval Isis de Change 1'14"7 Attelé
08/10/22 2 Trot 20 000€ 2 850m Laval Ivoire d'Authise 1'15"0 Attelé
08/10/22 6 Trot 23 000€ 2 850m Laval Ginka Manathis 1'14"7 Attelé
08/10/22 9 Trot 33 000€ 2 850m Laval Ecume de Furetais 1'15"0 Attelé
07/10/22 3 Trot 44 000€ 2 100m Vincennes Joli Cheri 1'13"2 Attelé
07/10/22 5 Trot 44 000€ 2 875m Vincennes Huelva Duperouzel 1'14"6 Attelé
07/10/22 0 Trot 75 000€ 2 700m Vincennes Ezalyo Smart Attelé lire

N'a joué aucun rôle utile.

07/10/22 6 Trot 44 000€ 2 850m Vincennes Gallica du Vinois 1'15"2 Attelé lire

Après avoir figuré au sein du peloton, a conclu convenablement.

06/10/22 5 Trot 28 000€ 2 775m Cabourg Felicita d'Ecouves 1'14"1 Attelé
06/10/22 4 Trot 24 000€ 2 775m Cabourg Himberland 1'13"5 Attelé
05/10/22 4 Trot 29 000€ 2 875m Laval Elixir Wind 1'15"3 Attelé
05/10/22 0 Trot 26 000€ 2 850m Laval Happy d'Aimte Attelé
05/10/22 1 Trot 30 000€ 2 875m Laval Ideal du Rocher 1'14"3 Attelé
05/10/22 D Trot 23 000€ 2 225m Laval Deede Star Monté
05/10/22 5 Trot 100 000€ 2 850m Laval Elite de Jiel 1'13"9 Attelé lire

Longtemps dans la dernière partie du peloton, a conclu de bonne manière.

30/09/22 D Trot 39 000€ 2 200m Vincennes James Bond Duem Monté
30/09/22 7 Trot 39 000€ 2 700m Vincennes Isa du Pressoir 1'14"8 Attelé
30/09/22 D Trot 51 000€ 2 175m Vincennes Hawai River Monté lire

Après avoir figuré, a été sanctionné au sommet de la montée.

30/09/22 7 Trot 70 000€ 2 700m Vincennes Jag Stryck 1'14"6 Attelé
30/09/22 1 Trot 49 000€ 2 875m Vincennes Drop de l'Iton 1'14"2 Attelé lire

Progressivement rapproché en épaisseur, a su se montrer le plus fort pour finir.

29/09/22 8 Trot 18 000€ 2 150m Enghien Soisy Huna Lila 1'14"0 Attelé
29/09/22 8 Trot 39 000€ 2 875m Enghien Soisy Hic du Mouchel 1'14"9 Monté